This is the latest recevied weather packets stored in our database for station/object SR9WXJ. If no packets are shown the sender has not sent any weather packets the latest 1 day(s).
| Time | Temp. | Humidity | Pressure | Rain* | Wind** | Luminosity | Snow |
|---|---|---|---|---|---|---|---|
| 1777965646 | 18.89° C | 100% | 797.9 hPa | - | 0.89 m/s, 34° | - | - |
| 1777965335 | 18.89° C | 100% | 797.9 hPa | - | 1.34 m/s, 153° | - | - |
| 1777965024 | 18.89° C | 100% | 797.9 hPa | - | 1.34 m/s, 222° | - | - |
| 1777964713 | 18.33° C | 100% | 797.9 hPa | - | 1.34 m/s, 221° | - | - |
| 1777964413 | 17.78° C | 100% | 797.9 hPa | - | 1.34 m/s, 105° | - | - |
| 1777964104 | 18.33° C | 100% | 797.9 hPa | - | 0.89 m/s, 260° | - | - |
| 1777963790 | 18.33° C | 100% | 797.9 hPa | - | 1.79 m/s, 221° | - | - |
| 1777963478 | 17.22° C | 100% | 797.9 hPa | - | 0.89 m/s, 245° | - | - |
| 1777963178 | 16.11° C | 100% | 797.9 hPa | - | 1.34 m/s, 158° | - | - |
| 1777962867 | 16.11° C | 100% | 797.9 hPa | - | 0.89 m/s, 1° | - | - |
| 1777962556 | 16.11° C | 100% | 797.9 hPa | - | 0.89 m/s, 68° | - | - |
| 1777961934 | 15.56° C | 100% | 797.9 hPa | - | 0.89 m/s, 263° | - | - |
| 1777961633 | 15.56° C | 100% | 797.9 hPa | - | 0.89 m/s, 320° | - | - |
| 1777961322 | 15.56° C | 100% | 797.9 hPa | - | 0.89 m/s, 289° | - | - |
| 1777961011 | 15° C | 100% | 797.9 hPa | - | 0.89 m/s, 14° | - | - |
| 1777960702 | 15° C | 100% | 797.9 hPa | - | 0.89 m/s, 287° | - | - |
| 1777960388 | 15° C | 100% | 797.9 hPa | - | 0.89 m/s, 323° | - | - |
| 1777960087 | 14.44° C | 100% | 797.9 hPa | - | 0.89 m/s, 36° | - | - |
| 1777959777 | 14.44° C | 100% | 797.9 hPa | - | 0.89 m/s, 38° | - | - |
| 1777959465 | 13.89° C | 100% | 797.9 hPa | - | 0.89 m/s, 249° | - | - |
| 1777959154 | 13.89° C | 100% | 797.9 hPa | - | 0.45 m/s, 302° | - | - |
| 1777958539 | 13.33° C | 100% | 797.9 hPa | - | 0.89 m/s, 16° | - | - |
| 1777958228 | 13.33° C | 100% | 797.9 hPa | - | 0.89 m/s, 40° | - | - |
| 1777957928 | 13.33° C | 100% | 797.9 hPa | - | 0.89 m/s, 16° | - | - |
| 1777957616 | 13.33° C | 100% | 797.9 hPa | - | 0.89 m/s, 325° | - | - |
* Rain since midnight (hover to see other rain measurements)
** Current wind speed in m/s (hover to see current wind gust speed)